Weather History for Lamar, CO

Change the Weather History Date:

Thursday, September 6, 2012

  Actual Average Record
Temperature  
Mean Temperature 76 °F 70 °F  
Max Temperature 99 °F 86 °F 105 °F (1931)
Min Temperature 53 °F 55 °F 41 °F (1956)
Degree Days  
Heating Degree Days 0 1  
Month to date heating degree days 0 5  
Since 1 July heating degree days 0 10  
Cooling Degree Days 11 6  
Month to date cooling degree days 73 40  
Year to date cooling degree days 1589 1029  
Growing Degree Days 26 (Base 50)    
Moisture  
Dew Point 39 °F    
Average Humidity 36    
Maximum Humidity 66    
Minimum Humidity 6    
Precipitation  
Precipitation 0.00 in 0.05 in 0.80 in (1948)
Month to date precipitation T 0.31  
Year to date precipitation 4.38 12.68  
Snow  
Snow 0.00 in - - ()
Month to date snowfall 0.0  
Snow Depth 0.00 in    
Sea Level Pressure  
Sea Level Pressure 29.82 in    
Wind  
Wind Speed 5 mph (West)    
Max Wind Speed 22 mph    
Max Gust Speed 28 mph    
Visibility 10 miles    
Events      
T = Trace of Precipitation, MM = Missing Value Source: NWS Daily Summary

Daily Weather History Graph

Daily Weather History Graph

Search for Another Location

Airport:

Trip Planner

Search our weather history database for the weather conditions in past years. The results will help you decide how hot, cold, wet, or windy it might be!

Date:

Astronomy

Sep. 06, 2012 Rise Set
Actual Time 6:25 AM MDT 7:11 PM MDT
Civil Twilight 5:58 AM MDT 7:38 PM MDT
Nautical Twilight 5:26 AM MDT 8:10 PM MDT
Astronomical Twilight 4:54 AM MDT 8:42 PM MDT
Moon 10:30 PM MDT (9/6) 12:20 PM MDT (9/6)
Length of Visible Light 13h 40m
Length of Day
12h 46m
Waning Gibbous, 67% of the Moon is Illuminated
Sep 6
Waning Gibbous
Sep 8
Last Quarter
Sep 15
New
Sep 22
First Quarter
Sep 29
Full

Hourly Weather History & Observations

Time (MDT) Temp. Dew Point Humidity Pressure Visibility Wind Dir Wind Speed Gust Speed Precip Events Conditions
12:53 AM 63.0 °F 44.1 °F 50% 29.92 in 10.0 mi Calm Calm - N/A   Clear
1:53 AM 59.0 °F 43.0 °F 55% 29.91 in 10.0 mi Calm Calm - N/A   Clear
2:53 AM 57.0 °F 42.1 °F 57% 29.91 in 10.0 mi Calm Calm - N/A   Clear
3:53 AM 55.9 °F 41.0 °F 57% 29.90 in 10.0 mi Calm Calm - N/A   Clear
4:53 AM 55.9 °F 42.1 °F 60% 29.89 in 10.0 mi Calm Calm - N/A   Clear
5:53 AM 57.0 °F 44.1 °F 62% 29.89 in 10.0 mi Calm Calm - N/A   Clear
6:53 AM 54.0 °F 42.1 °F 64% 29.91 in 7.0 mi WNW 3.5 mph - N/A   Clear
7:53 AM 62.1 °F 46.0 °F 56% 29.90 in 9.0 mi NW 3.5 mph - N/A   Clear
8:53 AM 72.0 °F 43.0 °F 35% 29.88 in 10.0 mi West 13.8 mph - N/A   Clear
9:53 AM 77.0 °F 41.0 °F 28% 29.88 in 10.0 mi West 9.2 mph - N/A   Clear
10:53 AM 84.0 °F 41.0 °F 22% 29.86 in 10.0 mi WSW 9.2 mph - N/A   Clear
11:53 AM 87.1 °F 41.0 °F 20% 29.84 in 10.0 mi West 9.2 mph 16.1 mph N/A   Clear
12:53 PM 89.1 °F 41.0 °F 19% 29.82 in 10.0 mi West 9.2 mph - N/A   Clear
1:53 PM 93.0 °F 41.0 °F 16% 29.79 in 10.0 mi Calm Calm - N/A   Clear
2:53 PM 93.9 °F 37.9 °F 14% 29.76 in 10.0 mi Calm Calm - N/A   Clear
3:53 PM 97.0 °F 30.9 °F 10% 29.73 in 10.0 mi East 4.6 mph - N/A   Clear
4:53 PM 97.0 °F 26.1 °F 8% 29.73 in 10.0 mi Variable 5.8 mph - N/A   Clear
5:53 PM 96.1 °F 19.0 °F 6% 29.72 in 10.0 mi NW 5.8 mph - N/A   Clear
6:53 PM 89.1 °F 26.1 °F 10% 29.73 in 10.0 mi NNE 3.5 mph - N/A   Clear
7:53 PM 82.0 °F 28.0 °F 14% 29.72 in 10.0 mi East 3.5 mph - N/A   Clear
8:53 PM 75.0 °F 28.9 °F 18% 29.74 in 10.0 mi ESE 4.6 mph - N/A   Clear
9:53 PM 69.1 °F 28.0 °F 22% 29.76 in 10.0 mi SW 6.9 mph - N/A   Clear
10:53 PM 75.9 °F 55.0 °F 48% 29.75 in 10.0 mi South 12.7 mph - N/A   Clear
11:53 PM 73.9 °F 55.9 °F 53% 29.73 in 10.0 mi SSW 12.7 mph - N/A   Clear